This demonstration page uses our WeatherBlox Daily Observations layout. Learn more.

Left ArrowRight Arrow

36.17497, -115.13722

Hourly Observations for March 23, 2019

Temp ( °F °C ) Dew Point ( °F °C ) Humidity (%) Winds ( mph kmh ) Pressure ( in mb ) Visibility ( mi km ) Precip ( " mm )
12:53 am 00:53 Clear 54 12.2 34 1.1 47 47 Calm 30.09 1019 10 16 0.00 0.00
1:53 am 01:53 Clear 55 12.8 34 1.1 45 45 WNW 5 7 30.09 1019 10 16 0.00 0.00
2:53 am 02:53 Clear 54 12.2 36 2.2 51 51 N 5 7 30.08 1019 10 16 0.00 0.00
3:53 am 03:53 Clear 53 11.7 36 2.2 52 52 NNW 5 7 30.07 1018 10 16 0.00 0.00
4:53 am 04:53 Clear 52 11.1 36 2.2 55 55 Calm 30.07 1018 10 16 0.00 0.00
5:53 am 05:53 Clear 51 10.6 38 3.3 61 61 Calm 30.08 1019 10 16 0.00 0.00
6:53 am 06:53 Sunny 51 10.6 38 3.3 61 61 Calm 30.09 1019 10 16 0.00 0.00
7:53 am 07:53 Sunny 53 11.7 38 3.3 57 57 Calm 30.10 1019 10 16 0.00 0.00
8:53 am 08:53 Sunny 57 13.9 36 2.2 45 45 SE 7 11 30.09 1019 10 16 0.00 0.00
9:53 am 09:53 Sunny 60 15.6 33 0.6 36 36 ESE 7 11 30.07 1018 10 16 0.00 0.00
10:53 am 10:53 Sunny 63 17.2 32 0 31 31 SE 10 17 30.06 1018 10 16 0.00 0.00
11:53 am 11:53 Sunny 66 18.9 31 -0.6 27 27 SE 10 17 30.04 1017 10 16 0.00 0.00
12:53 pm 12:53 Sunny 70 21.1 28 -2.2 21 21 S 13 20 30.01 1016 10 16 0.00 0.00
1:53 pm 13:53 Sunny 71 21.7 26 -3.3 19 19 SSW 20 31 29.98 1015 10 16 0.00 0.00
2:53 pm 14:53 Sunny 72 22.2 26 -3.3 18 18 SSW 21 33 29.96 1014 10 16 0.00 0.00
3:53 pm 15:53 Sunny 72 22.2 27 -2.8 19 19 WSW 22 35 29.94 1014 10 16 0.00 0.00
4:53 pm 16:53 Sunny 71 21.7 27 -2.8 19 19 WSW 20 31 29.92 1013 10 16 0.00 0.00
5:53 pm 17:53 Sunny 70 21.1 27 -2.8 20 20 SW 16 26 29.93 1013 10 16 0.00 0.00
6:53 pm 18:53 Sunny 68 20 29 -1.7 23 23 SW 15 24 29.93 1014 10 16 0.00 0.00
7:53 pm 19:53 Clear 66 18.9 33 0.6 29 29 SW 10 17 29.94 1014 10 16 0.00 0.00
8:53 pm 20:53 Clear 65 18.3 36 2.2 34 34 SW 20 31 29.95 1014 10 16 0.00 0.00
9:53 pm 21:53 Mostly Cloudy 64 17.8 36 2.2 35 35 VRB 3 6 29.98 1015 10 16 0.00 0.00
10:53 pm 22:53 Mostly Clear 61 16.1 35 1.7 38 38 S 18 30 29.98 1015 10 16 0.00 0.00
11:53 pm 23:53 Clear 59 15 34 1.1 39 39 S 16 26 29.99 1016 10 16 0.00 0.00

Powered by AerisWeather